Location: Brunembert
(50.7122°N, 1.8935°E)
Time: 10:17:06
(UTC+00:00)

CZ-2C R/B - Pass Details

Date: 22 April 2021
Orbit: 639 x 705 km, 98.3° (Epoch: 16 May)

Event Time Altitude Azimuth Distance (km) Brightness Sun altitude
Rises 20:17:24 0° 20° (NNE) 2,965 7.3 -11.6°
Reaches altitude 10° 20:19:44 10° 27° (NNE) 2,046 6.4 -11.9°
Maximum altitude 20:23:57 41° 98° (E) 931 4.1 -12.4°
Enters shadow 20:27:42 12° 167° (SSE) 1,869 5.6 -12.9°
